| time (UTC) | temp F | wind direction | speed knots | gust knots | rain 1hr in | rain 24hr in | rain mn in | humidity % | barometer mb |
| 20260905165011 | 59 | 5 | 0.9 | 1.7 | 0.00 | 0.00 | 0.00 | 74 | 1018.2 |
| 20260905164522 | 58 | 94 | 0.9 | 2.6 | 0.00 | 0.00 | 0.00 | 76 | 1018.2 |
| 20260905164014 | 58 | 120 | 0.9 | 2.6 | 0.00 | 0.00 | 0.00 | 77 | 1018.1 |
| 20260905163515 | 58 | 134 | 0.0 | 1.7 | 0.00 | 0.00 | 0.00 | 78 | 1018.1 |
| 20260905163027 | 57 | 167 | 0.0 | 1.7 | 0.00 | 0.00 | 0.00 | 78 | 1018.2 |
| 20260905162514 | 57 | 158 | 0.0 | 1.7 | 0.00 | 0.00 | 0.00 | 79 | 1018.1 |
| 20260905162017 | 57 | 130 | 0.0 | 0.0 | 0.00 | 0.00 | 0.00 | 79 | 1018.1 |
| 20260905161530 | 57 | 136 | 0.0 | 0.0 | 0.00 | 0.00 | 0.00 | 79 | 1018.1 |
| 20260905161018 | 56 | 135 | 0.0 | 0.9 | 0.00 | 0.00 | 0.00 | 80 | 1018.1 |
| 20260905160520 | 56 | 115 | 0.0 | 0.9 | 0.00 | 0.00 | 0.00 | 80 | 1018.1 |
| 20260905160046 | 56 | 115 | 0.9 | 1.7 | 0.00 | 0.00 | 0.00 | 80 | 1018.1 |
| 20260905155518 | 56 | 22 | 0.9 | 1.7 | 0.00 | 0.00 | 0.00 | 81 | 1018.1 |
| 20260905155011 | 56 | 142 | 0.0 | 0.0 | 0.00 | 0.00 | 0.00 | 81 | 1018.1 |
| 20260905154518 | 55 | 142 | 0.0 | 0.0 | 0.00 | 0.00 | 0.00 | 82 | 1018.2 |
| 20260905154014 | 55 | 142 | 0.0 | 1.7 | 0.00 | 0.00 | 0.00 | 81 | 1018.1 |
| 20260905153514 | 55 | 142 | 0.0 | 1.7 | 0.00 | 0.00 | 0.00 | 82 | 1018.2 |
| 20260905153001 | 55 | 144 | 0.0 | 1.7 | 0.00 | 0.00 | 0.00 | 83 | 1018.2 |
| 20260905152502 | 55 | 146 | 0.9 | 2.6 | 0.00 | 0.00 | 0.00 | 83 | 1018.2 |
| 20260905152002 | 55 | 131 | 0.9 | 2.6 | 0.00 | 0.00 | 0.00 | 84 | 1018.2 |
| 20260905151505 | 55 | 193 | 0.9 | 1.7 | 0.00 | 0.00 | 0.00 | 84 | 1018.2 |
| 20260905151008 | 55 | 136 | 0.0 | 0.0 | 0.00 | 0.00 | 0.00 | 82 | 1018.2 |
| 20260905150507 | 55 | 113 | 0.0 | 0.0 | 0.00 | 0.00 | 0.00 | 83 | 1018.1 |
| 20260905150021 | 54 | 97 | 0.0 | 1.7 | 0.00 | 0.00 | 0.00 | 83 | 1018.1 |
| 20260905145510 | 54 | 107 | 0.0 | 2.6 | 0.00 | 0.00 | 0.00 | 84 | 1018.1 |
| 20260905145012 | 53 | 95 | 0.0 | 2.6 | 0.00 | 0.00 | 0.00 | 85 | 1018.1 |
| 20260905144537 | 53 | 86 | 1.7 | 2.6 | 0.00 | 0.00 | 0.00 | 85 | 1018.0 |
| 20260905144016 | 53 | 102 | 0.0 | 1.7 | 0.00 | 0.00 | 0.00 | 85 | 1017.9 |
| 20260905143511 | 53 | 103 | 0.0 | 0.0 | 0.00 | 0.00 | 0.00 | 86 | 1017.9 |
| 20260905143026 | 52 | 103 | 0.0 | 0.0 | 0.00 | 0.00 | 0.00 | 87 | 1017.9 |
| 20260905142513 | 52 | 103 | 0.0 | 0.0 | 0.00 | 0.00 | 0.00 | 87 | 1017.8 |
| 20260905142017 | 52 | 102 | 0.0 | 0.0 | 0.00 | 0.00 | 0.00 | 87 | 1017.7 |
| 20260905141505 | 52 | 102 | 0.0 | 0.0 | 0.00 | 0.00 | 0.00 | 87 | 1017.7 |
| 20260905141007 | 52 | 103 | 0.0 | 0.0 | 0.00 | 0.00 | 0.00 | 87 | 1017.7 |
| 20260905140505 | 52 | 102 | 0.0 | 0.0 | 0.00 | 0.00 | 0.00 | 87 | 1017.7 |
| 20260905140011 | 52 | 103 | 0.0 | 0.0 | 0.00 | 0.00 | 0.00 | 87 | 1017.5 |
| 20260905135507 | 52 | 102 | 0.0 | 0.0 | 0.00 | 0.00 | 0.00 | 87 | 1017.5 |
| 20260905135009 | 52 | 102 | 0.0 | 0.0 | 0.00 | 0.00 | 0.00 | 87 | 1017.5 |
| 20260905134518 | 52 | 102 | 0.0 | 0.0 | 0.00 | 0.00 | 0.00 | 87 | 1017.4 |
| 20260905134008 | 52 | 103 | 0.0 | 0.0 | 0.00 | 0.00 | 0.00 | 87 | 1017.4 |
| 20260905133512 | 52 | 102 | 0.0 | 0.0 | 0.00 | 0.00 | 0.00 | 87 | 1017.4 |
| 20260905133031 | 52 | 102 | 0.0 | 0.0 | 0.00 | 0.00 | 0.00 | 87 | 1017.5 |
| 20260905132517 | 51 | 103 | 0.0 | 0.0 | 0.00 | 0.00 | 0.00 | 88 | 1017.4 |
| 20260905132017 | 51 | 103 | 0.0 | 0.0 | 0.00 | 0.00 | 0.00 | 88 | 1017.4 |
| 20260905131542 | 51 | 102 | 0.0 | 0.0 | 0.00 | 0.00 | 0.00 | 88 | 1017.5 |
| 20260905131016 | 51 | 102 | 0.0 | 0.0 | 0.00 | 0.00 | 0.00 | 88 | 1017.5 |
| 20260905130515 | 51 | 102 | 0.0 | 0.0 | 0.00 | 0.00 | 0.00 | 88 | 1017.5 |
| 20260905130009 | 51 | 102 | 0.0 | 0.0 | 0.00 | 0.00 | 0.00 | 88 | 1017.5 |
| 20260905125506 | 51 | 102 | 0.0 | 0.0 | 0.00 | 0.00 | 0.00 | 88 | 1017.4 |
| 20260905125007 | 51 | 102 | 0.0 | 0.0 | 0.00 | 0.00 | 0.00 | 88 | 1017.5 |
| 20260905124515 | 51 | 102 | 0.0 | 0.0 | 0.00 | 0.00 | 0.00 | 88 | 1017.5 |
| 20260905124009 | 51 | 102 | 0.0 | 0.0 | 0.00 | 0.00 | 0.00 | 88 | 1017.4 |
| 20260905123510 | 51 | 102 | 0.0 | 0.0 | 0.00 | 0.00 | 0.00 | 88 | 1017.4 |
| 20260905123018 | 51 | 103 | 0.0 | 0.0 | 0.00 | 0.00 | 0.00 | 88 | 1017.4 |
| 20260905122512 | 51 | 102 | 0.0 | 0.0 | 0.00 | 0.00 | 0.00 | 88 | 1017.4 |
| 20260905122014 | 51 | 102 | 0.0 | 0.0 | 0.00 | 0.00 | 0.00 | 88 | 1017.3 |
| 20260905121523 | 51 | 103 | 0.0 | 0.0 | 0.00 | 0.00 | 0.00 | 89 | 1017.4 |
| 20260905121014 | 50 | 102 | 0.0 | 0.0 | 0.00 | 0.00 | 0.00 | 89 | 1017.4 |
| 20260905120519 | 50 | 103 | 0.0 | 0.0 | 0.00 | 0.00 | 0.00 | 89 | 1017.4 |
| 20260905120029 | 50 | 102 | 0.0 | 0.0 | 0.00 | 0.00 | 0.00 | 89 | 1017.4 |
| 20260905115514 | 50 | 102 | 0.0 | 0.0 | 0.00 | 0.00 | 0.00 | 89 | 1017.4 |
| 20260905115018 | 50 | 102 | 0.0 | 0.0 | 0.00 | 0.00 | 0.00 | 89 | 1017.4 |
| 20260905114512 | 50 | 102 | 0.0 | 0.0 | 0.00 | 0.00 | 0.00 | 89 | 1017.4 |
| 20260905114006 | 50 | 102 | 0.0 | 0.0 | 0.00 | 0.00 | 0.00 | 88 | 1017.3 |
| 20260905113509 | 50 | 102 | 0.0 | 0.0 | 0.00 | 0.00 | 0.00 | 89 | 1017.3 |
| 20260905113017 | 50 | 102 | 0.0 | 0.0 | 0.00 | 0.00 | 0.00 | 89 | 1017.3 |
| 20260905112510 | 50 | 103 | 0.0 | 0.0 | 0.00 | 0.00 | 0.00 | 88 | 1017.3 |
| 20260905112013 | 50 | 103 | 0.0 | 0.0 | 0.00 | 0.00 | 0.00 | 88 | 1017.3 |
| 20260905111523 | 50 | 103 | 0.0 | 0.0 | 0.00 | 0.00 | 0.00 | 88 | 1017.3 |
| 20260905111015 | 51 | 103 | 0.0 | 0.0 | 0.00 | 0.00 | 0.00 | 88 | 1017.2 |
| 20260905110515 | 50 | 103 | 0.0 | 0.0 | 0.00 | 0.00 | 0.00 | 89 | 1017.2 |
| 20260905110027 | 51 | 102 | 0.0 | 0.0 | 0.00 | 0.00 | 0.00 | 88 | 1017.2 |
| 20260905105514 | 51 | 102 | 0.0 | 0.0 | 0.00 | 0.00 | 0.00 | 88 | 1017.2 |
| 20260905105015 | 51 | 102 | 0.0 | 0.0 | 0.00 | 0.00 | 0.00 | 88 | 1017.2 |
| 20260905104529 | 51 | 103 | 0.0 | 0.0 | 0.00 | 0.00 | 0.00 | 88 | 1017.1 |
| 20260905104016 | 51 | 102 | 0.0 | 0.0 | 0.00 | 0.00 | 0.00 | 88 | 1017.1 |
| 20260905103519 | 51 | 103 | 0.0 | 0.0 | 0.00 | 0.00 | 0.00 | 88 | 1017.0 |
| 20260905103035 | 51 | 103 | 0.0 | 0.0 | 0.00 | 0.00 | 0.00 | 88 | 1017.0 |
| 20260905102509 | 51 | 103 | 0.0 | 0.0 | 0.00 | 0.00 | 0.00 | 88 | 1016.9 |
| 20260905102010 | 52 | 102 | 0.0 | 0.0 | 0.00 | 0.00 | 0.00 | 88 | 1016.9 |
| 20260905101518 | 52 | 102 | 0.0 | 0.0 | 0.00 | 0.00 | 0.00 | 88 | 1017.0 |
| 20260905101011 | 52 | 102 | 0.0 | 0.0 | 0.00 | 0.00 | 0.00 | 88 | 1016.9 |
| 20260905100511 | 52 | 102 | 0.0 | 0.0 | 0.00 | 0.00 | 0.00 | 89 | 1016.9 |
| 20260905100024 | 51 | 102 | 0.0 | 0.0 | 0.00 | 0.00 | 0.00 | 89 | 1016.8 |
| 20260905095516 | 51 | 102 | 0.0 | 0.0 | 0.00 | 0.00 | 0.00 | 89 | 1016.8 |
| 20260905095016 | 51 | 102 | 0.0 | 0.0 | 0.00 | 0.00 | 0.00 | 89 | 1016.8 |
| 20260905094529 | 52 | 103 | 0.0 | 0.0 | 0.00 | 0.00 | 0.00 | 88 | 1016.8 |
| 20260905094015 | 52 | 102 | 0.0 | 0.0 | 0.00 | 0.00 | 0.00 | 88 | 1016.8 |
| 20260905093516 | 52 | 102 | 0.0 | 0.0 | 0.00 | 0.00 | 0.00 | 88 | 1016.9 |
| 20260905093033 | 52 | 102 | 0.0 | 0.0 | 0.00 | 0.00 | 0.00 | 88 | 1016.9 |
| 20260905092516 | 52 | 102 | 0.0 | 0.0 | 0.00 | 0.00 | 0.00 | 88 | 1016.9 |
| 20260905092022 | 52 | 102 | 0.0 | 0.0 | 0.00 | 0.00 | 0.00 | 88 | 1016.9 |
| 20260905091535 | 52 | 103 | 0.0 | 0.0 | 0.00 | 0.00 | 0.00 | 88 | 1016.9 |
| 20260905091011 | 52 | 102 | 0.0 | 0.0 | 0.00 | 0.00 | 0.00 | 88 | 1016.8 |
| 20260905090510 | 52 | 102 | 0.0 | 0.0 | 0.00 | 0.00 | 0.00 | 88 | 1016.8 |
| 20260905090014 | 52 | 102 | 0.0 | 0.0 | 0.00 | 0.00 | 0.00 | 88 | 1016.8 |
| 20260905085503 | 52 | 103 | 0.0 | 0.0 | 0.00 | 0.00 | 0.00 | 88 | 1016.8 |
| 20260905085002 | 52 | 102 | 0.0 | 0.0 | 0.00 | 0.00 | 0.00 | 88 | 1016.8 |
| 20260905084503 | 52 | 102 | 0.0 | 0.0 | 0.00 | 0.00 | 0.00 | 87 | 1016.8 |
| 20260905084005 | 53 | 102 | 0.0 | 0.0 | 0.00 | 0.00 | 0.00 | 88 | 1016.7 |
| 20260905083505 | 53 | 103 | 0.0 | 0.0 | 0.00 | 0.00 | 0.00 | 87 | 1016.7 |
| 20260905083004 | 53 | 103 | 0.0 | 0.0 | 0.00 | 0.00 | 0.00 | 87 | 1016.7 |
| 20260905082506 | 53 | 102 | 0.0 | 0.0 | 0.00 | 0.00 | 0.00 | 87 | 1016.6 |
| 20260905082007 | 53 | 103 | 0.0 | 0.9 | 0.00 | 0.00 | 0.00 | 87 | 1016.5 |
| 20260905081512 | 53 | 102 | 0.0 | 1.7 | 0.00 | 0.00 | 0.00 | 86 | 1016.5 |
| 20260905081010 | 53 | 113 | 0.0 | 1.7 | 0.00 | 0.00 | 0.00 | 86 | 1016.6 |
| 20260905080510 | 53 | 113 | 0.0 | 0.9 | 0.00 | 0.00 | 0.00 | 87 | 1016.6 |
| 20260905080021 | 53 | 98 | 0.0 | 0.0 | 0.00 | 0.00 | 0.00 | 87 | 1016.6 |
| 20260905075510 | 53 | 98 | 0.0 | 0.0 | 0.00 | 0.00 | 0.00 | 86 | 1016.6 |
| 20260905075008 | 53 | 98 | 0.0 | 0.0 | 0.00 | 0.00 | 0.00 | 86 | 1016.6 |
| 20260905074517 | 53 | 98 | 0.0 | 0.9 | 0.00 | 0.00 | 0.00 | 86 | 1016.6 |
| 20260905074005 | 53 | 98 | 0.0 | 0.9 | 0.00 | 0.01 | 0.00 | 86 | 1016.6 |
| 20260905073501 | 53 | 98 | 0.0 | 0.0 | 0.00 | 0.01 | 0.00 | 86 | 1016.6 |
| 20260905073004 | 54 | 98 | 0.0 | 0.0 | 0.00 | 0.01 | 0.00 | 85 | 1016.5 |
| 20260905072508 | 54 | 98 | 0.0 | 0.0 | 0.00 | 0.01 | 0.00 | 85 | 1016.5 |
| 20260905072004 | 54 | 98 | 0.0 | 0.0 | 0.00 | 0.01 | 0.00 | 85 | 1016.5 |
| 20260905071511 | 54 | 98 | 0.0 | 0.0 | 0.00 | 0.01 | 0.00 | 85 | 1016.5 |
| 20260905071007 | 54 | 98 | 0.0 | 0.0 | 0.00 | 0.01 | 0.00 | 85 | 1016.3 |
| 20260905070508 | 54 | 98 | 0.0 | 0.0 | 0.00 | 0.01 | 0.00 | 84 | 1016.3 |
| 20260905070017 | 54 | 98 | 0.0 | 0.0 | 0.00 | 0.01 | 0.00 | 84 | 1016.3 |
| 20260905065510 | 54 | 98 | 0.0 | 0.0 | 0.00 | 0.02 | 0.01 | 84 | 1016.3 |
| 20260905065015 | 55 | 98 | 0.0 | 0.0 | 0.00 | 0.02 | 0.01 | 83 | 1016.2 |
| 20260905064520 | 55 | 98 | 0.0 | 0.0 | 0.00 | 0.02 | 0.01 | 83 | 1016.2 |
| 20260905064010 | 55 | 98 | 0.0 | 0.0 | 0.00 | 0.02 | 0.01 | 83 | 1016.2 |
| 20260905063509 | 55 | 98 | 0.0 | 0.0 | 0.00 | 0.02 | 0.01 | 83 | 1016.2 |
| 20260905063020 | 55 | 98 | 0.0 | 0.0 | 0.00 | 0.02 | 0.01 | 82 | 1016.1 |
| 20260905062514 | 56 | 98 | 0.0 | 0.0 | 0.00 | 0.02 | 0.01 | 81 | 1016.0 |
| 20260905062004 | 56 | 98 | 0.0 | 0.0 | 0.00 | 0.02 | 0.01 | 80 | 1016.0 |
| 20260905061508 | 57 | 98 | 0.0 | 1.7 | 0.00 | 0.02 | 0.01 | 79 | 1015.9 |
| 20260905061004 | 57 | 98 | 0.0 | 1.7 | 0.00 | 0.02 | 0.01 | 79 | 1015.9 |
| 20260905060508 | 57 | 98 | 0.0 | 1.7 | 0.00 | 0.02 | 0.01 | 79 | 1015.9 |
| 20260905060016 | 57 | 98 | 0.0 | 2.6 | 0.00 | 0.02 | 0.01 | 78 | 1015.9 |
| 20260905055510 | 58 | 100 | 0.0 | 2.6 | 0.00 | 0.02 | 0.01 | 78 | 1015.9 |
| 20260905055010 | 57 | 74 | 0.0 | 2.6 | 0.00 | 0.02 | 0.01 | 78 | 1015.8 |
| 20260905054519 | 57 | 96 | 0.0 | 0.0 | 0.00 | 0.02 | 0.01 | 79 | 1015.7 |
| 20260905054010 | 58 | 96 | 0.0 | 0.0 | 0.00 | 0.02 | 0.01 | 78 | 1015.7 |
| 20260905053513 | 58 | 96 | 0.0 | 0.0 | 0.00 | 0.02 | 0.01 | 78 | 1015.7 |
| 20260905053033 | 58 | 96 | 0.0 | 0.0 | 0.00 | 0.02 | 0.01 | 78 | 1015.8 |
| 20260905052513 | 58 | 96 | 0.0 | 0.0 | 0.00 | 0.02 | 0.01 | 77 | 1015.8 |
| 20260905052014 | 58 | 96 | 0.0 | 0.0 | 0.00 | 0.02 | 0.01 | 77 | 1015.8 |
| 20260905051523 | 58 | 96 | 0.0 | 0.0 | 0.00 | 0.02 | 0.01 | 77 | 1015.9 |
| 20260905051011 | 58 | 96 | 0.0 | 0.0 | 0.00 | 0.02 | 0.01 | 77 | 1015.9 |
| 20260905050507 | 58 | 96 | 0.0 | 0.0 | 0.00 | 0.02 | 0.01 | 76 | 1015.9 |
| 20260905050013 | 58 | 96 | 0.0 | 0.0 | 0.00 | 0.02 | 0.01 | 76 | 1015.8 |
| 20260905045508 | 58 | 96 | 0.0 | 0.0 | 0.00 | 0.02 | 0.01 | 76 | 1015.8 |
| 20260905045009 | 58 | 96 | 0.0 | 0.0 | 0.00 | 0.02 | 0.01 | 76 | 1015.8 |
| 20260905044520 | 58 | 96 | 0.0 | 0.0 | 0.00 | 0.02 | 0.01 | 76 | 1015.9 |
| 20260905044011 | 58 | 96 | 0.0 | 0.0 | 0.00 | 0.02 | 0.01 | 76 | 1015.9 |
| 20260905043516 | 59 | 96 | 0.0 | 0.0 | 0.00 | 0.02 | 0.01 | 75 | 1015.9 |
| 20260905043026 | 59 | 96 | 0.0 | 0.0 | 0.00 | 0.02 | 0.01 | 75 | 1015.9 |
| 20260905042513 | 59 | 96 | 0.0 | 0.0 | 0.00 | 0.02 | 0.01 | 74 | 1015.9 |
| 20260905042014 | 59 | 96 | 0.0 | 0.0 | 0.00 | 0.02 | 0.01 | 74 | 1015.9 |
| 20260905041525 | 60 | 96 | 0.0 | 0.0 | 0.00 | 0.02 | 0.01 | 73 | 1015.8 |
| 20260905041015 | 59 | 96 | 0.0 | 0.0 | 0.00 | 0.02 | 0.01 | 73 | 1015.8 |
| 20260905040514 | 59 | 96 | 0.0 | 0.0 | 0.00 | 0.02 | 0.01 | 73 | 1015.8 |
| 20260905040028 | 60 | 96 | 0.0 | 0.0 | 0.00 | 0.02 | 0.01 | 72 | 1015.8 |
| 20260905035515 | 60 | 96 | 0.0 | 0.0 | 0.00 | 0.02 | 0.01 | 71 | 1015.8 |
| 20260905035007 | 60 | 96 | 0.0 | 0.0 | 0.00 | 0.02 | 0.01 | 71 | 1015.8 |
| 20260905034514 | 60 | 96 | 0.0 | 0.0 | 0.00 | 0.02 | 0.01 | 70 | 1015.8 |
| 20260905034013 | 60 | 100 | 0.0 | 0.0 | 0.00 | 0.02 | 0.01 | 70 | 1015.7 |
| 20260905033508 | 60 | 100 | 0.0 | 0.0 | 0.00 | 0.02 | 0.01 | 70 | 1015.7 |
| 20260905033030 | 60 | 100 | 0.0 | 0.0 | 0.00 | 0.02 | 0.01 | 69 | 1015.7 |
| 20260905032512 | 61 | 99 | 0.0 | 0.0 | 0.00 | 0.02 | 0.01 | 69 | 1015.6 |
| 20260905032013 | 61 | 100 | 0.0 | 0.0 | 0.00 | 0.02 | 0.01 | 68 | 1015.6 |
| 20260905031526 | 61 | 105 | 0.0 | 0.0 | 0.00 | 0.02 | 0.01 | 68 | 1015.6 |
| 20260905031016 | 61 | 117 | 0.0 | 0.0 | 0.00 | 0.02 | 0.01 | 68 | 1015.5 |
| 20260905030514 | 61 | 117 | 0.0 | 0.0 | 0.00 | 0.02 | 0.01 | 67 | 1015.5 |
| 20260905030030 | 61 | 117 | 0.0 | 0.0 | 0.00 | 0.02 | 0.01 | 67 | 1015.4 |
| 20260905025513 | 62 | 117 | 0.0 | 0.0 | 0.00 | 0.02 | 0.01 | 66 | 1015.4 |
| 20260905025013 | 62 | 117 | 0.0 | 0.0 | 0.00 | 0.02 | 0.01 | 64 | 1015.4 |
| 20260905024528 | 62 | 117 | 0.0 | 0.0 | 0.00 | 0.02 | 0.01 | 64 | 1015.3 |
| 20260905024020 | 62 | 123 | 0.0 | 0.0 | 0.00 | 0.02 | 0.01 | 64 | 1015.3 |
| 20260905023508 | 62 | 123 | 0.0 | 0.0 | 0.00 | 0.02 | 0.01 | 63 | 1015.3 |
| 20260905023037 | 62 | 121 | 0.0 | 0.0 | 0.00 | 0.02 | 0.01 | 62 | 1015.3 |
| 20260905022512 | 63 | 117 | 0.0 | 0.0 | 0.00 | 0.02 | 0.01 | 63 | 1015.4 |
| 20260905022012 | 63 | 117 | 0.0 | 1.7 | 0.00 | 0.02 | 0.01 | 62 | 1015.4 |
| 20260905021526 | 63 | 129 | 0.0 | 1.7 | 0.00 | 0.02 | 0.01 | 62 | 1015.4 |
| 20260905021011 | 63 | 223 | 0.0 | 2.6 | 0.00 | 0.03 | 0.01 | 62 | 1015.4 |
| 20260905020518 | 63 | 220 | 0.9 | 2.6 | 0.00 | 0.03 | 0.01 | 60 | 1015.4 |
| 20260905020033 | 63 | 104 | 0.9 | 3.5 | 0.00 | 0.03 | 0.01 | 60 | 1015.3 |
| 20260905015515 | 64 | 123 | 1.7 | 5.2 | 0.00 | 0.03 | 0.01 | 60 | 1015.4 |
| 20260905015019 | 64 | 136 | 1.7 | 5.2 | 0.00 | 0.04 | 0.01 | 59 | 1015.3 |
| 20260905014530 | 64 | 121 | 2.6 | 5.2 | 0.00 | 0.04 | 0.01 | 59 | 1015.4 |
| 20260905014014 | 64 | 105 | 1.7 | 5.2 | 0.00 | 0.04 | 0.01 | 58 | 1015.3 |
| 20260905013514 | 65 | 106 | 0.9 | 2.6 | 0.00 | 0.04 | 0.01 | 57 | 1015.3 |
| 20260905013029 | 65 | 93 | 0.9 | 2.6 | 0.00 | 0.04 | 0.01 | 56 | 1015.2 |
| 20260905012518 | 66 | 79 | 0.9 | 2.6 | 0.00 | 0.04 | 0.01 | 56 | 1014.9 |
| 20260905012009 | 66 | 88 | 0.9 | 1.7 | 0.00 | 0.04 | 0.01 | 55 | 1014.7 |
| 20260905011520 | 65 | 82 | 0.0 | 4.3 | 0.00 | 0.04 | 0.01 | 55 | 1014.7 |
| 20260905011014 | 66 | 122 | 1.7 | 4.3 | 0.00 | 0.04 | 0.01 | 55 | 1014.7 |
| 20260905010513 | 66 | 109 | 0.9 | 6.1 | 0.00 | 0.04 | 0.01 | 56 | 1014.6 |
| 20260905010032 | 66 | 195 | 1.7 | 6.1 | 0.00 | 0.04 | 0.01 | 55 | 1014.5 |
| 20260905005513 | 67 | 121 | 1.7 | 5.2 | 0.00 | 0.04 | 0.01 | 54 | 1014.5 |
| 20260905005013 | 67 | 104 | 0.9 | 8.7 | 0.00 | 0.04 | 0.01 | 55 | 1014.5 |
| 20260905004505 | 67 | 92 | 1.7 | 8.7 | 0.00 | 0.04 | 0.01 | 53 | 1014.5 |
| 20260905004005 | 67 | 133 | 0.9 | 3.5 | 0.00 | 0.04 | 0.01 | 53 | 1014.5 |
| 20260905003508 | 67 | 167 | 0.9 | 3.5 | 0.00 | 0.04 | 0.01 | 57 | 1014.4 |
| 20260905003008 | 67 | 178 | 0.9 | 6.1 | 0.00 | 0.04 | 0.01 | 58 | 1014.4 |
| 20260905002508 | 67 | 213 | 1.7 | 7.0 | 0.00 | 0.04 | 0.01 | 56 | 1014.3 |
| 20260905002002 | 68 | 120 | 4.3 | 7.0 | 0.00 | 0.04 | 0.01 | 55 | 1014.3 |
| 20260905001503 | 68 | 114 | 0.9 | 4.3 | 0.00 | 0.04 | 0.01 | 50 | 1014.3 |
| 20260905001000 | 67 | 311 | 0.0 | 3.5 | 0.00 | 0.04 | 0.01 | 50 | 1014.2 |
| 20260905000501 | 68 | 352 | 0.9 | 3.5 | 0.00 | 0.04 | 0.01 | 49 | 1014.2 |
| 20260905000004 | 68 | 329 | 0.9 | 2.6 | 0.00 | 0.04 | 0.01 | 49 | 1014.2 |
| 20260904235503 | 68 | 350 | 0.9 | 3.5 | 0.00 | 0.04 | 0.01 | 48 | 1014.1 |
| 20260904235003 | 69 | 269 | 0.9 | 3.5 | 0.00 | 0.04 | 0.01 | 51 | 1014.2 |
| 20260904234507 | 69 | 345 | 0.9 | 3.5 | 0.00 | 0.04 | 0.01 | 47 | 1014.1 |
| 20260904234004 | 68 | 349 | 0.9 | 3.5 | 0.00 | 0.04 | 0.01 | 49 | 1014.2 |
| 20260904233505 | 68 | 270 | 0.9 | 5.2 | 0.00 | 0.04 | 0.01 | 47 | 1014.2 |
| 20260904233008 | 68 | 290 | 2.6 | 5.2 | 0.00 | 0.04 | 0.01 | 45 | 1014.2 |
| 20260904232508 | 68 | 273 | 1.7 | 3.5 | 0.00 | 0.04 | 0.01 | 49 | 1014.2 |
| 20260904232007 | 68 | 309 | 1.7 | 3.5 | 0.00 | 0.04 | 0.01 | 49 | 1014.2 |
| 20260904231513 | 68 | 321 | 0.9 | 3.5 | 0.00 | 0.04 | 0.01 | 52 | 1014.1 |
| 20260904231011 | 67 | 284 | 0.0 | 2.6 | 0.00 | 0.04 | 0.01 | 54 | 1014.1 |
| 20260904230502 | 67 | 252 | 0.9 | 2.6 | 0.00 | 0.04 | 0.01 | 54 | 1014.0 |
| 20260904230004 | 67 | 282 | 0.9 | 2.6 | 0.00 | 0.04 | 0.01 | 53 | 1014.0 |
| 20260904225502 | 68 | 280 | 1.7 | 7.0 | 0.00 | 0.04 | 0.01 | 54 | 1013.9 |
| 20260904225001 | 68 | 327 | 1.7 | 7.0 | 0.00 | 0.04 | 0.01 | 54 | 1013.9 |
| 20260904224504 | 68 | 9 | 1.7 | 5.2 | 0.00 | 0.04 | 0.01 | 55 | 1013.9 |
| 20260904224001 | 68 | 329 | 1.7 | 6.1 | 0.00 | 0.04 | 0.01 | 57 | 1013.9 |
| 20260904223505 | 68 | 315 | 2.6 | 6.1 | 0.00 | 0.04 | 0.01 | 56 | 1013.8 |
| 20260904223006 | 68 | 290 | 1.7 | 6.1 | 0.00 | 0.04 | 0.01 | 56 | 1013.9 |
| 20260904222504 | 68 | 288 | 2.6 | 6.1 | 0.00 | 0.04 | 0.01 | 57 | 1013.8 |
| 20260904222004 | 68 | 277 | 2.6 | 6.1 | 0.00 | 0.04 | 0.01 | 56 | 1013.8 |
| 20260904221510 | 69 | 279 | 0.9 | 5.2 | 0.00 | 0.04 | 0.01 | 56 | 1013.8 |
| 20260904221008 | 68 | 52 | 2.6 | 5.2 | 0.00 | 0.04 | 0.01 | 58 | 1013.8 |
| 20260904220509 | 67 | 287 | 1.7 | 5.2 | 0.00 | 0.04 | 0.01 | 58 | 1013.8 |
| 20260904220026 | 68 | 263 | 1.7 | 3.5 | 0.00 | 0.04 | 0.01 | 56 | 1013.7 |
| 20260904215511 | 68 | 329 | 0.9 | 3.5 | 0.00 | 0.04 | 0.01 | 59 | 1013.8 |
| 20260904215004 | 67 | 322 | 1.7 | 6.1 | 0.00 | 0.04 | 0.01 | 59 | 1013.8 |
| 20260904214504 | 67 | 267 | 2.6 | 6.1 | 0.00 | 0.04 | 0.01 | 61 | 1013.8 |
| 20260904214005 | 67 | 282 | 0.9 | 5.2 | 0.00 | 0.04 | 0.01 | 61 | 1013.8 |
| 20260904213506 | 66 | 280 | 1.7 | 5.2 | 0.00 | 0.04 | 0.01 | 61 | 1013.8 |
| 20260904213011 | 66 | 286 | 2.6 | 5.2 | 0.00 | 0.04 | 0.01 | 61 | 1013.7 |
| 20260904212506 | 66 | 271 | 1.7 | 5.2 | 0.00 | 0.04 | 0.01 | 61 | 1013.7 |
| 20260904212004 | 66 | 240 | 0.9 | 5.2 | 0.00 | 0.04 | 0.01 | 62 | 1013.7 |
| 20260904211508 | 66 | 294 | 1.7 | 6.1 | 0.00 | 0.04 | 0.01 | 62 | 1013.6 |
| 20260904211008 | 66 | 309 | 1.7 | 6.1 | 0.00 | 0.04 | 0.01 | 64 | 1013.6 |
| 20260904210512 | 65 | 275 | 1.7 | 6.1 | 0.00 | 0.04 | 0.01 | 64 | 1013.6 |
| 20260904210019 | 65 | 323 | 1.7 | 7.0 | 0.00 | 0.04 | 0.01 | 63 | 1013.7 |
| 20260904205510 | 64 | 259 | 3.5 | 7.0 | 0.00 | 0.04 | 0.01 | 63 | 1013.6 |
| 20260904205010 | 65 | 304 | 1.7 | 7.0 | 0.00 | 0.04 | 0.01 | 63 | 1013.7 |
| 20260904204521 | 65 | 288 | 3.5 | 7.0 | 0.00 | 0.04 | 0.01 | 64 | 1013.7 |
| 20260904204012 | 65 | 295 | 0.9 | 5.2 | 0.00 | 0.04 | 0.01 | 66 | 1013.7 |
| 20260904203507 | 64 | 277 | 2.6 | 5.2 | 0.00 | 0.04 | 0.01 | 66 | 1013.8 |
| 20260904203006 | 65 | 320 | 2.6 | 5.2 | 0.00 | 0.04 | 0.01 | 65 | 1013.8 |
| 20260904202504 | 64 | 248 | 0.9 | 6.1 | 0.00 | 0.04 | 0.01 | 68 | 1013.9 |
| 20260904202006 | 64 | 274 | 2.6 | 6.1 | 0.00 | 0.04 | 0.01 | 68 | 1013.8 |
| 20260904201509 | 63 | 209 | 0.9 | 5.2 | 0.00 | 0.04 | 0.01 | 68 | 1013.9 |
| 20260904201011 | 63 | 283 | 1.7 | 5.2 | 0.00 | 0.04 | 0.01 | 68 | 1013.8 |
| 20260904200509 | 63 | 263 | 2.6 | 3.5 | 0.00 | 0.04 | 0.01 | 68 | 1014.0 |
| 20260904200018 | 63 | 267 | 1.7 | 5.2 | 0.00 | 0.04 | 0.01 | 69 | 1014.0 |
| 20260904195509 | 62 | 324 | 1.7 | 5.2 | 0.00 | 0.04 | 0.01 | 69 | 1014.0 |
| 20260904195009 | 63 | 286 | 2.6 | 6.1 | 0.00 | 0.04 | 0.01 | 69 | 1014.0 |
| 20260904194541 | 63 | 321 | 2.6 | 6.1 | 0.00 | 0.04 | 0.01 | 69 | 1013.9 |
| 20260904194012 | 63 | 268 | 2.6 | 6.1 | 0.00 | 0.04 | 0.01 | 70 | 1013.9 |
| 20260904193517 | 63 | 156 | 0.9 | 7.0 | 0.00 | 0.04 | 0.01 | 72 | 1013.8 |
| 20260904193027 | 63 | 288 | 2.6 | 7.0 | 0.00 | 0.04 | 0.01 | 72 | 1013.9 |
| 20260904192516 | 63 | 298 | 2.6 | 6.1 | 0.00 | 0.04 | 0.01 | 71 | 1013.9 |
| 20260904192005 | 63 | 290 | 1.7 | 6.1 | 0.00 | 0.04 | 0.01 | 75 | 1013.9 |
| 20260904191504 | 62 | 342 | 1.7 | 5.2 | 0.00 | 0.04 | 0.01 | 74 | 1014.0 |
| 20260904191005 | 62 | 325 | 0.9 | 6.1 | 0.00 | 0.04 | 0.01 | 76 | 1014.0 |
| 20260904190508 | 61 | 286 | 1.7 | 6.1 | 0.00 | 0.04 | 0.01 | 76 | 1014.0 |
| 20260904190008 | 62 | 271 | 2.6 | 5.2 | 0.00 | 0.04 | 0.01 | 74 | 1014.0 |
| 20260904185512 | 62 | 286 | 0.9 | 2.6 | 0.00 | 0.04 | 0.01 | 75 | 1014.0 |
| 20260904185011 | 62 | 288 | 0.9 | 5.2 | 0.00 | 0.04 | 0.01 | 78 | 1014.0 |
| 20260904184518 | 61 | 287 | 1.7 | 5.2 | 0.00 | 0.04 | 0.01 | 78 | 1014.1 |
| 20260904184012 | 62 | 301 | 1.7 | 3.5 | 0.00 | 0.04 | 0.01 | 77 | 1014.0 |
| 20260904183514 | 60 | 281 | 1.7 | 3.5 | 0.00 | 0.04 | 0.01 | 79 | 1014.0 |
| 20260904183023 | 60 | 337 | 1.7 | 2.6 | 0.00 | 0.04 | 0.01 | 78 | 1014.0 |
| 20260904182515 | 62 | 350 | 0.9 | 3.5 | 0.00 | 0.04 | 0.01 | 78 | 1014.0 |
| 20260904182016 | 61 | 5 | 1.7 | 3.5 | 0.00 | 0.04 | 0.01 | 77 | 1013.9 |
| 20260904181526 | 60 | 185 | 0.0 | 1.7 | 0.00 | 0.04 | 0.01 | 79 | 1013.9 |
| 20260904181017 | 60 | 292 | 0.9 | 2.6 | 0.00 | 0.04 | 0.01 | 79 | 1014.0 |
| 20260904180503 | 60 | 273 | 0.9 | 2.6 | 0.00 | 0.04 | 0.01 | 79 | 1014.0 |
| 20260904180007 | 60 | 288 | 0.9 | 2.6 | 0.00 | 0.04 | 0.01 | 80 | 1014.0 |
| 20260904175508 | 60 | 142 | 0.9 | 2.6 | 0.00 | 0.04 | 0.01 | 80 | 1014.0 |
| 20260904175008 | 59 | 239 | 0.9 | 3.5 | 0.00 | 0.04 | 0.01 | 83 | 1014.1 |
| 20260904174519 | 59 | 19 | 1.7 | 3.5 | 0.00 | 0.04 | 0.01 | 82 | 1014.1 |
| 20260904174010 | 59 | 229 | 1.7 | 3.5 | 0.00 | 0.04 | 0.01 | 83 | 1014.1 |
| 20260904173511 | 58 | 277 | 1.7 | 2.6 | 0.00 | 0.04 | 0.01 | 85 | 1014.1 |
| 20260904173018 | 57 | 284 | 1.7 | 2.6 | 0.00 | 0.04 | 0.01 | 86 | 1014.1 |
| 20260904172512 | 57 | 170 | 0.0 | 2.6 | 0.00 | 0.04 | 0.01 | 88 | 1014.1 |
| 20260904172014 | 57 | 277 | 0.9 | 1.7 | 0.00 | 0.04 | 0.01 | 87 | 1014.1 |
| 20260904171523 | 57 | 151 | 0.0 | 1.7 | 0.00 | 0.04 | 0.01 | 88 | 1014.1 |
| 20260904171015 | 56 | 287 | 0.0 | 2.6 | 0.00 | 0.04 | 0.01 | 88 | 1014.0 |
| 20260904170519 | 56 | 279 | 0.9 | 3.5 | 0.00 | 0.04 | 0.01 | 88 | 1014.1 |
| 20260904170031 | 56 | 261 | 0.9 | 3.5 | 0.00 | 0.04 | 0.01 | 87 | 1014.1 |
| 20260904165516 | 57 | 272 | 0.0 | 1.7 | 0.00 | 0.04 | 0.01 | 88 | 1014.1 |